Stündliche Wetter Aachen

Heute, 23 Juni, Mittwoch

Zeit Temperatur Niederschläge Wind Luftdruck Luftfeuchtigkeit
00:00 +13°C° 0 mm 2 m/S 748 mmHg 97%
01:00 +12°C° 0 mm 3 m/S 748 mmHg 97%
02:00 +12°C° 0 mm 3 m/S 748 mmHg 97%
03:00 +12°C° 0 mm 3 m/S 748 mmHg 97%
04:00 +13°C° 0 mm 2 m/S 748 mmHg 96%
05:00 +13°C° 0 mm 2 m/S 748 mmHg 96%
06:00 +12°C° 0 mm 2 m/S 749 mmHg 95%
07:00 +13°C° 0 mm 2 m/S 749 mmHg 92%
08:00 +13°C° 0 mm 3 m/S 749 mmHg 89%
09:00 +14°C° 0 mm 3 m/S 749 mmHg 86%
10:00 +16°C° 0 mm 3 m/S 749 mmHg 81%
11:00 +17°C° 0 mm 3 m/S 749 mmHg 77%
12:00 +18°C° 0 mm 3 m/S 749 mmHg 72%
13:00 +18°C° 0 mm 3 m/S 749 mmHg 71%
14:00 +18°C° 0 mm 3 m/S 749 mmHg 70%
15:00 +19°C° 0 mm 3 m/S 749 mmHg 69%
16:00 +18°C° 0 mm 3 m/S 749 mmHg 71%
17:00 +18°C° 0 mm 3 m/S 749 mmHg 73%
18:00 +18°C° 0 mm 3 m/S 749 mmHg 76%
19:00 +17°C° 0 mm 3 m/S 749 mmHg 79%
20:00 +16°C° 0 mm 3 m/S 749 mmHg 82%
21:00 +14°C° 0 mm 3 m/S 750 mmHg 86%
22:00 +14°C° 0 mm 2 m/S 750 mmHg 88%
23:00 +13°C° 0 mm 2 m/S 750 mmHg 91%

Morgen, 24 Juni, Donnerstag

Zeit Temperatur Niederschläge Wind Luftdruck Luftfeuchtigkeit
00:00 +13°C° 0 mm 1 m/S 750 mmHg 93%
01:00 +13°C° 0 mm 1 m/S 750 mmHg 93%
02:00 +13°C° 0 mm 1 m/S 749 mmHg 93%
03:00 +13°C° 0 mm 1 m/S 749 mmHg 93%
04:00 +13°C° 0 mm 2 m/S 749 mmHg 92%
05:00 +14°C° 0 mm 2 m/S 749 mmHg 91%
06:00 +14°C° 0 mm 2 m/S 749 mmHg 90%
07:00 +15°C° 0 mm 2 m/S 749 mmHg 88%
08:00 +16°C° 0 mm 2 m/S 749 mmHg 85%
09:00 +16°C° 0 mm 2 m/S 749 mmHg 83%
10:00 +17°C° 0.1 mm 2 m/S 749 mmHg 81%
11:00 +17°C° 0.1 mm 2 m/S 749 mmHg 80%
12:00 +18°C° 0.1 mm 2 m/S 749 mmHg 79%
13:00 +18°C° 0.2 mm 3 m/S 749 mmHg 79%
14:00 +18°C° 0.2 mm 3 m/S 749 mmHg 79%
15:00 +18°C° 0.2 mm 3 m/S 749 mmHg 79%
16:00 +18°C° 0 mm 2 m/S 748 mmHg 81%
17:00 +17°C° 0 mm 2 m/S 748 mmHg 82%
18:00 +18°C° 0 mm 1 m/S 748 mmHg 83%
19:00 +16°C° 0 mm 1 m/S 749 mmHg 85%
20:00 +16°C° 0 mm 2 m/S 749 mmHg 87%
21:00 +15°C° 0 mm 2 m/S 749 mmHg 89%
22:00 +14°C° 0 mm 2 m/S 749 mmHg 89%
23:00 +13°C° 0 mm 2 m/S 749 mmHg 89%

übermorgen, 25 Juni, Freitag

Zeit Temperatur Niederschläge Wind Luftdruck Luftfeuchtigkeit
00:00 +13°C° 0 mm 2 m/S 749 mmHg 89%
01:00 +12°C° 0 mm 2 m/S 749 mmHg 89%
02:00 +10°C° 0 mm 2 m/S 749 mmHg 88%
03:00 +9°C° 0 mm 2 m/S 748 mmHg 88%
04:00 +10°C° 0 mm 2 m/S 749 mmHg 82%
05:00 +12°C° 0 mm 2 m/S 749 mmHg 75%
06:00 +13°C° 0 mm 2 m/S 749 mmHg 69%
07:00 +15°C° 0 mm 2 m/S 749 mmHg 61%
08:00 +16°C° 0 mm 3 m/S 749 mmHg 54%
09:00 +18°C° 0 mm 3 m/S 748 mmHg 46%
10:00 +19°C° 0 mm 3 m/S 748 mmHg 47%
11:00 +20°C° 0 mm 3 m/S 748 mmHg 47%
12:00 +21°C° 0 mm 3 m/S 748 mmHg 47%
13:00 +21°C° 0 mm 3 m/S 748 mmHg 50%
14:00 +21°C° 0 mm 3 m/S 748 mmHg 53%
15:00 +21°C° 0 mm 3 m/S 748 mmHg 55%
16:00 +20°C° 0.2 mm 3 m/S 748 mmHg 64%
17:00 +19°C° 0.2 mm 3 m/S 748 mmHg 73%
18:00 +18°C° 0.2 mm 3 m/S 748 mmHg 82%
19:00 +17°C° 0 mm 2 m/S 748 mmHg 86%
20:00 +16°C° 0 mm 1 m/S 748 mmHg 89%
21:00 +15°C° 0 mm 1 m/S 749 mmHg 92%
22:00 +15°C° 0 mm 1 m/S 749 mmHg 92%
23:00 +15°C° 0 mm 1 m/S 749 mmHg 93%

26 Juni, Samstag

Zeit Temperatur Niederschläge Wind Luftdruck Luftfeuchtigkeit
00:00 +14°C° 0 mm 1 m/S 749 mmHg 93%
01:00 +14°C° 0 mm 1 m/S 748 mmHg 93%
02:00 +14°C° 0 mm 1 m/S 748 mmHg 93%
03:00 +13°C° 0 mm 1 m/S 748 mmHg 93%
04:00 +14°C° 0 mm 1 m/S 748 mmHg 90%
05:00 +15°C° 0 mm 1 m/S 748 mmHg 87%
06:00 +16°C° 0 mm 1 m/S 748 mmHg 84%
07:00 +19°C° 0 mm 1 m/S 748 mmHg 77%
08:00 +20°C° 0 mm 1 m/S 748 mmHg 70%
09:00 +22°C° 0 mm 1 m/S 748 mmHg 62%
10:00 +23°C° 0 mm 1 m/S 748 mmHg 59%
11:00 +23°C° 0 mm 2 m/S 748 mmHg 56%
12:00 +24°C° 0 mm 2 m/S 748 mmHg 53%
13:00 +24°C° 0 mm 2 m/S 747 mmHg 52%
14:00 +25°C° 0 mm 2 m/S 747 mmHg 50%
15:00 +25°C° 0 mm 2 m/S 747 mmHg 49%
16:00 +25°C° 0 mm 1 m/S 747 mmHg 54%
17:00 +24°C° 0 mm 1 m/S 747 mmHg 60%
18:00 +23°C° 0 mm 1 m/S 747 mmHg 66%
19:00 +22°C° 0 mm 1 m/S 747 mmHg 69%
20:00 +20°C° 0 mm 1 m/S 747 mmHg 73%
21:00 +19°C° 0 mm 1 m/S 747 mmHg 76%
22:00 +17°C° 0 mm 2 m/S 747 mmHg 79%
23:00 +17°C° 0 mm 2 m/S 747 mmHg 81%

27 Juni, Sonntag

Zeit Temperatur Niederschläge Wind Luftdruck Luftfeuchtigkeit
00:00 +16°C° 0 mm 2 m/S 746 mmHg 84%
01:00 +16°C° 0 mm 2 m/S 746 mmHg 84%
02:00 +16°C° 0 mm 2 m/S 746 mmHg 85%
03:00 +16°C° 0 mm 2 m/S 746 mmHg 85%
04:00 +17°C° 0 mm 2 m/S 746 mmHg 82%
05:00 +18°C° 0 mm 2 m/S 746 mmHg 78%
06:00 +20°C° 0 mm 2 m/S 746 mmHg 75%
07:00 +22°C° 0 mm 3 m/S 746 mmHg 69%
08:00 +24°C° 0 mm 3 m/S 745 mmHg 63%
09:00 +26°C° 0 mm 3 m/S 745 mmHg 58%
10:00 +25°C° 0.1 mm 2 m/S 745 mmHg 63%
11:00 +25°C° 0.1 mm 2 m/S 745 mmHg 69%
12:00 +24°C° 0.1 mm 1 m/S 745 mmHg 74%
13:00 +23°C° 0.9 mm 1 m/S 745 mmHg 79%
14:00 +21°C° 0.9 mm 2 m/S 745 mmHg 84%
15:00 +20°C° 0.9 mm 2 m/S 745 mmHg 89%
16:00 +19°C° 0.2 mm 2 m/S 745 mmHg 90%
17:00 +19°C° 0.2 mm 2 m/S 745 mmHg 91%
18:00 +19°C° 0.2 mm 2 m/S 746 mmHg 92%
19:00 +18°C° 0 mm 2 m/S 746 mmHg 93%
20:00 +18°C° 0 mm 2 m/S 746 mmHg 94%
21:00 +18°C° 0 mm 1 m/S 746 mmHg 95%
22:00 +18°C° 0 mm 1 m/S 746 mmHg 95%
23:00 +18°C° 0 mm 1 m/S 746 mmHg 94%

28 Juni, Montag

Zeit Temperatur Niederschläge Wind Luftdruck Luftfeuchtigkeit
00:00 +18°C° 0 mm 1 m/S 746 mmHg 94%
01:00 +18°C° 0 mm 1 m/S 746 mmHg 94%
02:00 +16°C° 0 mm 1 m/S 746 mmHg 94%
03:00 +16°C° 0 mm 1 m/S 746 mmHg 94%
04:00 +18°C° 0 mm 1 m/S 746 mmHg 93%
05:00 +19°C° 0 mm 1 m/S 747 mmHg 91%
06:00 +20°C° 0 mm 1 m/S 747 mmHg 89%
07:00 +20°C° 0.4 mm 1 m/S 747 mmHg 90%
08:00 +19°C° 0.4 mm 2 m/S 747 mmHg 90%
09:00 +19°C° 0.4 mm 2 m/S 747 mmHg 91%
10:00 +20°C° 0.2 mm 2 m/S 748 mmHg 84%
11:00 +21°C° 0.2 mm 2 m/S 748 mmHg 76%
12:00 +24°C° 0.2 mm 3 m/S 748 mmHg 69%
13:00 +22°C° 0.3 mm 3 m/S 748 mmHg 73%
14:00 +21°C° 0.3 mm 3 m/S 748 mmHg 77%
15:00 +20°C° 0.3 mm 4 m/S 748 mmHg 82%
16:00 +19°C° 0.6 mm 3 m/S 748 mmHg 86%
17:00 +18°C° 0.6 mm 3 m/S 748 mmHg 91%
18:00 +17°C° 0.6 mm 3 m/S 747 mmHg 95%
19:00 +17°C° 1.6 mm 2 m/S 747 mmHg 96%
20:00 +16°C° 1.6 mm 2 m/S 747 mmHg 96%
21:00 +16°C° 1.6 mm 1 m/S 748 mmHg 97%
22:00 +16°C° 1.3 mm 2 m/S 747 mmHg 97%
23:00 +16°C° 1.3 mm 2 m/S 747 mmHg 98%
Mehr zeigen

Wir brauchen deine Erlaubnis

Meteoprog und unser Service Anbieter werden persönliche Daten aufbewahren, so wie Cookies, Geräte Bezeichnung oder ähnliche Technologien von deinem Gerät und Prozess, so wie Persönliche Daten Inhalte und Werbungen, genauso wie social Media und den Verkehr zu analysieren.

  • Aufbewahrung und/oder Zugang zu deiner Geräte Informationen.

    Cookies, Geräte Bezeichnung oder andere Informationen, können aufbewahrt oder Zugang zu deinem Gerät erhalten, für den Grund, der oben angegeben wird.

  • Personalisierte Werbung und Inhalte, Messungen, Einblick in das Publikum und Produkt Entwicklung.

    Werbungen und Inhalte können personalisiert werden, basierend auf ein Profil. Mehr Daten können besser personalisierte Werbungen und Inhalte hinzufügen. Werbung und Inhalte können gezeigt und gemessen werden. Einblicke über das Publikum, welche die Werbung gesehen haben und den Inhalt, können abgeleitet werden. So wie Daten können genutzt werden, um es zu verbessern oder die Benutzer Erfahrung zu verbessern das System und die Software.

Wenn du “Ich stimme zu” klickst, erlaubst du uns, die Cookies zu benutzen die Geräte Bezeichnung, den Web oder ähnliche Technologien zu benutzen. Deine Settings, können in deinem Gerät bei deinem Browser geändert werden.

Für den bestimmten Zweck, berechtigten Interessen beruhen darauf, mehr als auf den Inhalt. Du kannst mehr darüber in unseren Privaten und Cookie Politik lesen.